Temperature
16 16 16 16 16 16 15 15 15 15 15 15 15 15 14 14 14 14 14 14 14 14 14 14 14 13 13 13 13 13 13 13 12 12 11 11 11 11 11 11 11 11 11
16 16 16 16 15 15 15 15 15 15 15 15 15 15 14 14 14 14 14 14 14 14 14 14 13 13 13 13 13 13 13 12 12 12 11 11 11 11 11 11 11 11 11
16 16 16 16 15 15 15 15 15 15 15 15 15 14 14 14 14 14 14 14 14 14 13 13 13 13 13 13 13 13 12 12 12 12 11 11 11 11 11 10 10 10 10
16 16 16 15 15 15 15 15 15 14 14 14 14 14 14 14 14 14 14 14 13 13 13 13 13 13 13 13 13 12 12 12 12 12 11 11 11 11 10 10 10 10 10
16 15 15 15 15 15 14 14 14 14 14 14 14 14 14 14 14 14 14 14 13 13 13 13 13 13 13 13 13 12 12 12 12 11 11 11 11 10 10 10 10 10 10
16 15 15 15 15 14 14 14 14 14 14 14 14 14 14 13 13 13 13 13 13 13 13 13 13 13 13 13 12 12 12 12 11 11 11 11 11 11 10 10 10 10 9
15 15 15 14 14 14 14 14 14 13 13 14 13 13 13 13 13 13 13 13 13 13 13 13 13 12 12 12 12 12 12 12 11 11 11 11 11 11 11 10 10 10 10
15 15 15 14 14 14 13 13 13 13 13 13 13 13 13 13 13 13 13 13 13 13 12 12 12 12 12 12 12 12 12 11 11 11 11 11 11 11 10 10 10 10 9
15 15 14 14 14 13 13 13 13 13 13 13 13 13 13 13 13 13 12 12 12 12 12 12 12 12 12 12 12 11 11 11 11 11 11 11 11 10 10 10 10 9 9
14 14 14 14 13 13 13 13 13 12 12 12 12 12 12 12 12 12 12 12 12 12 12 12 11 11 11 11 11 11 11 11 10 10 10 10 10 10 10 10 10 9 9
14 14 13 13 13 13 13 13 12 12 12 12 12 12 12 12 12 12 12 12 12 12 11 11 11 11 11 11 11 11 10 10 10 10 10 10 10 10 10 10 9 9 9
14 14 13 13 13 13 12 12 12 12 12 12 12 12 12 12 12 12 12 12 11 11 11 11 11 11 11 10 10 10 10 10 10 9 9 9 10 10 9 9 9 9 9
14 13 13 12 12 12 12 12 12 12 11 11 11 11 11 11 11 11 11 11 11 11 11 11 10 10 10 10 10 10 10 9 9 9 9 9 9 9 9 9 9 9 9
13 13 12 12 12 12 12 12 11 11 11 11 11 11 11 11 11 11 11 11 11 10 10 10 10 10 10 10 10 10 9 9 9 9 9 8 8 8 8 8 9 9 8
13 12 12 12 11 11 11 11 11 11 11 11 11 11 11 11 11 11 11 10 10 10 10 10 10 10 10 10 9 9 9 9 9 8 8 8 8 8 8 8 8 8 8
12 12 12 11 11 11 11 11 11 11 11 11 11 11 11 11 11 11 10 10 10 10 10 10 10 10 10 9 9 9 9 9 9 8 8 8 8 8 8 8 7 7 7
12 12 11 11 11 11 11 11 11 11 10 10 10 10 10 10 10 10 10 10 10 9 9 9 9 9 9 9 9 9 9 9 8 8 8 8 8 8 8 7 7 7 7
11 11 11 11 10 10 10 10 10 10 10 10 10 10 10 10 10 10 10 9 9 9 9 9 9 9 9 9 9 9 8 8 8 8 8 8 8 8 7 7 7 7 7
11 11 11 11 10 10 10 10 10 10 10 10 10 10 10 10 10 9 9 9 9 9 9 9 9 9 9 9 9 8 8 8 8 8 8 8 8 7 7 7 7 7 6
11 11 10 10 10 10 9 9 9 9 9 9 9 10 10 9 9 9 9 9 9 9 9 9 9 9 9 9 8 8 8 8 8 8 8 8 7 7 7 7 7 6 6
10 10 10 10 9 9 9 9 9 9 9 9 9 9 9 9 9 9 9 9 9 9 9 9 9 9 9 8 8 8 8 8 8 8 8 7 7 7 7 6 6 6 6
10 10 9 9 9 9 9 9 9 9 9 9 9 9 9 9 9 9 9 9 9 9 9 9 9 8 8 8 8 8 8 8 8 8 7 7 7 7 6 6 6 6 6
9 9 9 9 9 8 8 8 8 8 8 8 8 8 8 8 9 9 9 9 9 9 9 8 8 8 8 8 8 8 8 8 8 8 7 7 7 6 6 6 6 5 5
9 8 8 8 8 8 8 8 8 8 8 8 8 8 8 8 8 8 8 8 8 8 8 8 8 8 8 7 7 7 7 7 7 7 7 7 6 6 6 5 5 5 5
8 8 8 8 8 8 7 7 8 8 7 7 8 8 8 8 8 8 8 8 8 8 8 7 7 7 7 7 7 7 7 7 7 7 6 6 6 6 5 5 5 5 4
7 7 7 7 7 7 7 7 7 7 7 7 7 7 7 8 8 8 7 7 7 7 7 7 7 7 7 7 7 7 7 7 7 6 6 6 6 5 5 5 5 4 4
Wind_Speed
4 3 2 2 2 2 2 1 2 2 3 2 2 1 2 2 2 2 2 2 1 1 1 1 1 1 1 1 1 0 0 2 2 0 2 3 3 3 4 4 5 5 3
3 3 3 3 2 2 2 2 2 1 1 1 1 1 1 1 1 2 3 2 2 1 1 2 2 2 2 1 1 1 1 1 3 2 1 2 2 3 3 2 3 3 3
3 3 2 2 2 2 2 2 1 1 1 1 2 1 1 1 1 2 3 2 2 1 1 1 2 2 2 2 2 2 2 2 2 2 2 1 1 2 2 1 1 2 2
3 2 2 2 2 2 1 1 1 1 1 2 1 2 2 1 1 1 1 2 2 1 1 1 1 1 2 3 3 3 3 3 2 2 2 2 2 2 2 1 1 1 1
3 3 2 2 1 1 1 0 0 0 0 0 0 0 0 0 0 1 0 1 1 1 0 1 1 2 2 2 2 2 2 2 2 2 2 2 2 2 2 2 2 1 1
3 3 2 2 1 1 1 1 0 0 0 0 0 1 1 1 2 1 1 0 1 1 1 1 1 2 2 2 2 2 2 2 3 2 2 3 3 3 3 3 2 1 2
4 3 3 3 2 2 1 1 1 1 1 1 1 1 1 1 1 1 1 1 1 1 2 1 1 1 2 2 2 1 0 1 2 3 3 3 3 3 4 3 2 2 3
4 4 3 3 2 2 2 2 2 2 2 2 2 2 2 2 3 3 2 2 2 2 1 1 2 2 1 1 2 1 1 2 3 3 3 2 2 3 4 4 4 2 1
4 3 3 3 3 2 2 2 2 2 2 2 2 3 3 3 4 4 3 1 2 3 2 1 2 2 2 2 1 1 1 1 1 1 2 2 2 2 2 2 2 2 1
3 2 2 3 3 3 3 3 2 2 3 2 3 3 4 4 5 5 5 2 2 2 1 0 1 2 2 2 2 1 1 1 1 0 0 1 1 1 2 3 3 3 2
3 2 2 3 3 3 2 2 2 2 3 3 3 3 4 4 5 7 7 3 3 2 2 1 1 3 2 1 2 2 2 1 1 2 2 2 1 1 2 2 2 2 3
2 2 2 3 3 3 2 2 2 2 3 4 3 3 3 3 4 5 7 6 3 2 2 2 2 3 2 2 2 2 2 0 1 1 1 2 2 2 2 2 2 2 2
3 3 2 3 3 3 4 4 3 3 3 3 3 3 2 2 3 6 8 7 5 2 1 1 2 2 2 2 3 3 2 1 2 2 2 2 2 2 2 2 2 2 1
3 3 3 2 2 3 3 3 3 3 3 3 3 3 2 2 2 3 3 3 3 2 2 2 2 2 2 2 2 3 3 3 3 3 2 2 1 1 1 2 1 1 0
3 3 3 2 3 3 3 3 4 4 4 4 3 3 4 4 5 5 4 4 3 3 2 1 2 2 2 2 3 3 3 3 3 3 3 3 2 2 2 2 2 2 2
4 3 3 2 2 2 3 2 3 4 5 5 5 4 4 5 6 7 7 7 6 6 4 3 4 4 4 4 4 4 4 4 4 4 4 4 3 3 3 2 2 3 3
4 3 3 3 2 2 2 3 2 2 4 5 6 6 6 6 6 7 8 7 7 7 4 4 4 5 5 5 4 4 4 4 4 4 4 4 4 4 3 3 3 2 2
4 4 3 3 3 3 3 3 3 3 3 3 4 6 6 6 7 7 7 5 4 5 4 4 5 5 4 5 4 4 4 4 4 4 4 4 4 3 3 3 3 3 2
3 3 3 3 3 3 3 3 3 4 3 3 2 3 5 5 5 6 7 4 5 5 5 5 5 4 4 4 4 4 4 4 4 4 4 4 4 3 3 3 3 4 3
3 4 4 3 3 3 3 4 4 4 4 4 4 3 3 3 3 4 5 4 5 5 5 5 5 5 4 4 4 3 3 3 4 4 4 4 4 4 4 4 4 3 3
3 4 5 4 4 4 4 5 5 5 5 5 4 4 5 5 5 5 5 5 5 5 5 5 4 4 4 3 3 4 4 4 4 4 4 4 4 4 3 3 3 3 3
2 3 3 4 4 4 4 5 5 5 5 5 3 3 6 4 5 4 5 5 5 4 4 4 4 3 4 4 4 4 4 4 4 4 4 3 3 4 4 3 3 3 3
3 3 3 3 3 4 4 4 4 4 4 4 3 3 4 4 4 4 4 4 3 3 3 3 3 3 3 4 4 4 4 4 4 4 4 4 4 4 4 4 4 4 3
3 3 3 3 3 4 4 4 4 4 4 4 4 4 4 4 4 3 3 3 2 2 2 2 3 3 3 3 3 4 4 5 5 5 5 5 4 4 4 4 4 4 4
3 3 3 3 3 4 4 4 4 4 4 4 3 3 3 3 3 2 2 2 2 2 2 2 2 2 3 3 3 3 4 5 5 5 5 5 5 5 4 4 4 4 4
3 3 3 3 3 3 3 3 3 3 3 3 3 3 3 2 2 2 2 2 2 2 2 2 2 2 2 2 3 4 4 5 6 6 5 5 5 5 4 4 5 4 4
Wind_Direction
178 179 173 168 162 161 161 185 217 202 190 178 178 182 164 162 169 161 173 183 208 222 199 181 185 157 145 148 127 59 45 116 132 133 127 141 131 127 129 136 119 127 115
176 182 184 170 169 180 170 200 223 224 192 169 163 153 144 147 167 171 177 185 200 217 231 193 185 161 150 138 127 134 125 131 138 148 158 147 147 148 145 154 135 142 134
179 196 189 169 172 186 185 184 195 189 180 202 178 186 178 173 191 185 169 186 190 209 231 217 199 164 170 166 160 153 158 144 134 150 165 158 153 141 129 139 137 157 172
173 191 199 181 178 189 185 175 183 173 193 222 194 185 180 186 190 183 182 183 194 205 213 211 219 176 172 170 167 169 158 156 156 157 172 173 169 168 143 170 246 260 226
175 187 195 175 164 138 146 140 178 210 216 164 77 55 78 173 142 58 114 147 184 236 223 105 67 73 90 109 126 143 150 164 166 175 190 190 190 177 190 192 188 223 251
176 179 171 163 158 151 180 169 186 244 301 11 133 83 41 18 70 60 16 327 245 220 189 166 139 112 97 106 114 118 133 169 186 185 199 204 210 196 182 178 181 188 273
188 185 169 168 183 188 196 185 197 195 213 224 204 165 160 175 170 197 274 281 278 263 230 201 211 173 127 155 162 160 218 234 203 190 204 216 205 195 175 181 195 200 224
193 184 169 169 187 184 190 199 201 198 205 215 211 190 185 208 209 221 229 247 260 270 254 194 168 164 161 152 142 155 241 257 235 214 206 227 188 160 166 182 193 184 208
196 184 179 179 185 190 207 217 217 205 214 211 209 202 202 212 207 210 194 208 246 256 255 233 166 167 163 143 135 185 226 272 335 131 146 132 127 130 127 130 151 143 232
182 184 180 174 181 205 214 218 222 216 218 207 213 216 212 209 205 205 193 202 221 243 259 240 118 136 151 159 176 195 223 239 179 132 151 236 187 184 165 163 177 182 201
144 148 199 190 191 206 212 213 220 219 214 215 216 221 223 215 202 198 190 201 206 212 209 205 169 154 164 196 217 217 222 204 195 200 223 224 208 186 175 181 172 177 195
154 165 189 208 203 198 193 210 212 208 214 220 219 222 221 209 185 193 192 206 217 205 217 202 193 180 194 219 225 212 195 151 236 221 223 217 210 211 209 182 169 163 179
178 185 201 214 206 188 193 205 206 210 216 220 215 217 218 205 190 189 198 210 219 216 223 196 176 182 183 211 225 215 197 211 223 230 234 229 219 203 162 135 121 108 74
193 195 205 209 212 199 200 202 201 209 216 217 215 219 219 205 189 179 188 204 212 220 228 192 172 176 197 220 226 231 221 214 210 224 232 231 225 192 180 169 169 155 122
202 201 204 206 210 213 208 217 216 217 210 209 215 215 214 216 210 194 187 197 202 206 192 190 194 196 211 219 224 216 211 216 221 219 216 211 209 203 207 199 190 188 200
208 210 201 198 202 214 209 228 237 227 222 223 224 228 226 220 212 204 202 198 196 192 184 199 207 209 214 217 218 218 215 215 215 209 206 201 204 205 205 211 205 197 202
212 213 200 193 193 214 218 208 233 266 254 244 237 238 232 218 211 207 204 199 196 184 194 211 214 217 219 221 219 215 217 218 210 205 205 201 201 202 200 205 206 204 211
214 212 209 196 194 205 225 225 216 217 236 258 249 234 223 213 211 207 190 168 190 190 206 214 220 221 221 222 221 218 215 208 205 204 203 204 202 201 200 198 196 200 211
221 209 211 204 199 206 218 234 227 222 227 228 229 228 218 208 201 196 177 188 200 211 216 221 224 225 228 225 222 216 211 208 205 201 201 201 202 200 205 202 195 203 208
236 226 224 221 215 216 218 226 228 225 228 224 220 214 191 182 196 196 200 208 212 219 220 220 221 224 224 221 213 208 211 212 208 207 208 205 205 201 203 203 199 197 206
232 226 227 232 233 228 227 230 229 223 222 225 226 211 191 204 209 207 205 213 219 220 217 219 221 221 216 214 209 208 212 215 212 212 212 207 201 201 201 201 203 200 201
247 239 231 230 235 237 231 230 229 221 219 221 223 219 202 207 210 210 213 219 222 224 214 208 214 214 210 208 207 209 214 218 214 211 210 204 198 198 196 197 200 205 202
245 238 235 234 231 237 241 235 225 220 217 212 209 205 204 213 213 213 215 218 214 216 211 203 205 208 208 209 205 210 216 219 218 209 200 200 202 202 199 202 203 203 206
259 248 244 241 229 228 236 237 225 218 215 213 212 209 209 213 213 213 216 212 212 215 215 209 203 208 212 214 207 208 217 223 215 207 202 200 201 199 197 202 205 204 203
261 255 248 246 242 235 235 233 223 217 214 213 212 214 219 220 214 206 204 196 199 207 208 205 204 218 222 220 216 215 218 213 210 204 197 197 196 196 199 202 204 207 210
259 257 248 244 240 232 228 224 216 209 209 210 208 209 216 218 217 205 191 196 195 202 206 206 205 216 230 212 211 214 211 206 200 196 191 194 193 195 196 200 205 206 208
Height
1530 1531 1532 1533 1533 1534 1534 1535 1535 1535 1536 1536 1537 1537 1537 1537 1538 1538 1538 1538 1538 1539 1539 1539 1539 1539 1539 1540 1540 1540 1540 1540 1540 1540 1541 1541 1541 1540 1539 1539 1539 1538 1538
1528 1529 1530 1531 1531 1532 1532 1533 1533 1534 1534 1535 1535 1536 1536 1536 1536 1537 1537 1537 1537 1537 1537 1538 1538 1538 1538 1538 1538 1538 1538 1538 1538 1538 1539 1539 1539 1539 1539 1538 1538 1537 1537
1526 1527 1528 1529 1529 1530 1530 1531 1531 1532 1532 1533 1533 1534 1534 1534 1535 1535 1536 1536 1536 1536 1536 1536 1536 1536 1536 1536 1537 1537 1537 1537 1537 1537 1537 1538 1538 1538 1537 1537 1537 1536 1536
1524 1525 1526 1526 1527 1528 1528 1529 1529 1530 1530 1531 1531 1532 1532 1533 1533 1533 1534 1534 1534 1535 1535 1535 1535 1535 1535 1535 1534 1535 1535 1535 1535 1535 1536 1536 1536 1536 1536 1535 1535 1535 1535
1521 1522 1523 1524 1524 1525 1526 1526 1527 1528 1528 1528 1529 1529 1530 1530 1531 1531 1532 1532 1532 1532 1533 1533 1533 1533 1533 1533 1532 1532 1533 1533 1533 1533 1534 1534 1534 1534 1534 1534 1534 1534 1534
1518 1519 1520 1521 1522 1522 1523 1523 1524 1525 1525 1526 1526 1527 1527 1528 1528 1529 1529 1529 1530 1530 1530 1530 1530 1530 1531 1530 1530 1530 1531 1531 1531 1531 1531 1532 1531 1532 1532 1532 1532 1531 1531
1515 1516 1517 1518 1519 1519 1520 1521 1521 1522 1522 1523 1524 1524 1524 1525 1525 1526 1526 1527 1527 1527 1527 1527 1528 1528 1528 1527 1527 1527 1528 1528 1529 1529 1529 1529 1529 1529 1529 1529 1529 1529 1529
1512 1513 1514 1515 1516 1516 1517 1518 1518 1519 1519 1520 1520 1521 1521 1522 1522 1523 1523 1524 1524 1524 1525 1525 1525 1524 1524 1524 1524 1524 1524 1525 1525 1525 1526 1526 1527 1527 1527 1527 1527 1527 1527
1509 1510 1511 1511 1512 1513 1514 1515 1515 1516 1516 1517 1517 1517 1518 1518 1519 1520 1520 1520 1521 1521 1521 1522 1522 1521 1521 1521 1521 1521 1521 1521 1522 1522 1523 1523 1524 1524 1524 1524 1524 1524 1524
1506 1507 1508 1508 1509 1510 1510 1511 1512 1512 1513 1513 1513 1514 1514 1515 1515 1516 1517 1517 1517 1518 1518 1518 1519 1519 1519 1518 1518 1518 1518 1518 1518 1519 1519 1520 1520 1520 1521 1521 1521 1521 1521
1503 1504 1504 1505 1505 1506 1507 1508 1508 1508 1509 1509 1510 1510 1511 1511 1512 1513 1513 1514 1514 1514 1515 1515 1515 1516 1516 1515 1515 1515 1515 1515 1515 1515 1515 1516 1516 1516 1516 1517 1518 1518 1518
1500 1500 1501 1501 1502 1502 1503 1504 1504 1505 1505 1506 1506 1507 1507 1508 1508 1509 1509 1510 1510 1511 1511 1512 1512 1512 1512 1512 1512 1512 1512 1512 1512 1512 1511 1511 1511 1512 1513 1513 1514 1515 1515
1496 1496 1497 1498 1498 1499 1499 1500 1501 1501 1502 1502 1502 1502 1503 1503 1504 1505 1505 1506 1506 1507 1507 1508 1509 1509 1509 1509 1509 1509 1508 1508 1508 1508 1507 1508 1508 1509 1509 1510 1510 1511 1511
1492 1492 1493 1494 1494 1495 1495 1496 1497 1497 1497 1498 1498 1498 1498 1499 1500 1500 1501 1502 1502 1503 1503 1504 1505 1505 1505 1505 1505 1505 1505 1505 1505 1504 1504 1504 1505 1505 1505 1506 1506 1507 1507
1488 1489 1489 1490 1490 1491 1491 1492 1492 1493 1493 1493 1493 1494 1494 1494 1495 1496 1497 1497 1497 1498 1499 1499 1500 1500 1500 1501 1501 1501 1501 1501 1501 1501 1501 1501 1501 1501 1502 1502 1503 1503 1503
1484 1484 1485 1486 1486 1487 1487 1488 1488 1489 1489 1489 1490 1490 1490 1490 1491 1492 1492 1493 1493 1494 1494 1494 1495 1495 1496 1496 1496 1497 1497 1497 1497 1497 1497 1497 1497 1497 1498 1499 1499 1499 1499
1479 1480 1480 1481 1482 1482 1483 1483 1483 1484 1484 1485 1485 1485 1486 1486 1486 1487 1488 1488 1489 1489 1489 1490 1490 1491 1491 1492 1492 1492 1492 1493 1493 1493 1493 1493 1493 1494 1494 1494 1495 1495 1495
1475 1476 1476 1477 1477 1477 1478 1479 1479 1479 1479 1479 1480 1481 1481 1481 1482 1483 1483 1484 1484 1484 1484 1485 1485 1486 1487 1487 1488 1488 1488 1488 1489 1489 1489 1489 1489 1489 1489 1490 1490 1491 1491
1470 1471 1471 1472 1472 1473 1473 1474 1474 1474 1474 1474 1475 1475 1476 1477 1477 1478 1478 1479 1478 1479 1479 1480 1480 1481 1482 1482 1483 1483 1483 1484 1484 1484 1485 1485 1485 1485 1485 1485 1486 1486 1487
1465 1466 1466 1467 1467 1467 1468 1469 1469 1469 1470 1470 1470 1470 1471 1471 1471 1472 1473 1473 1474 1474 1474 1475 1475 1476 1477 1477 1478 1478 1478 1479 1479 1479 1480 1480 1480 1480 1481 1481 1482 1482 1482
1460 1461 1461 1461 1461 1462 1462 1463 1464 1464 1465 1465 1465 1466 1466 1467 1467 1467 1468 1468 1469 1469 1469 1470 1471 1471 1472 1472 1473 1473 1473 1474 1474 1474 1475 1475 1475 1476 1476 1477 1477 1478 1478
1455 1455 1455 1456 1456 1457 1456 1457 1458 1459 1460 1460 1461 1462 1462 1462 1462 1463 1463 1463 1464 1465 1465 1465 1466 1466 1467 1467 1468 1468 1468 1468 1469 1469 1469 1470 1470 1471 1472 1472 1473 1473 1474
1450 1450 1450 1451 1451 1451 1452 1452 1453 1454 1455 1456 1456 1457 1457 1457 1458 1458 1458 1459 1460 1460 1460 1461 1461 1461 1462 1463 1463 1463 1463 1463 1464 1465 1465 1465 1465 1466 1466 1467 1468 1468 1469
1445 1445 1445 1445 1446 1446 1446 1447 1448 1449 1450 1451 1451 1452 1452 1453 1453 1454 1454 1455 1455 1455 1456 1456 1456 1457 1457 1457 1458 1458 1458 1459 1459 1460 1460 1460 1460 1461 1462 1462 1463 1463 1464
1440 1439 1439 1440 1440 1440 1441 1441 1443 1444 1445 1446 1447 1447 1448 1449 1449 1450 1450 1450 1451 1451 1451 1452 1452 1452 1452 1452 1452 1453 1453 1454 1454 1454 1455 1455 1455 1456 1457 1457 1458 1458 1459
1435 1435 1435 1435 1435 1435 1436 1436 1437 1438 1440 1441 1442 1443 1444 1444 1445 1445 1446 1446 1446 1446 1447 1447 1447 1447 1447 1447 1447 1447 1448 1448 1448 1449 1449 1450 1450 1451 1451 1452 1453 1453 1454